Terug naar catalogus

STARLINK-31010

ActiefCommunicatieVLEO
NORAD 58519·PAYLOAD·🇺🇸 United States

Gelanceerd Dec 7, 2023 vanaf Cape Canaveral Space Force Station

Loading…

Volgende Passages (komende 24 uur)

TLE

VersSource: CelesTrak SupGP

Epoch: Sep 14, 2026, 22:17 UTC

1 58519C 23191M   26257.92895833 -.00064800  00000+0 -23475-2 0  2572
2 58519  43.0005 114.8197 0001435 274.1912 354.2996 15.27604204    12

Volg STARLINK-31010 in realtime met AllMySat

Download on the App Store